Regional Weather Roundup
Issued by NWS Sioux Falls, SD

Home | Current Version | Previous Version | Text Only | Print | Product List | Glossary On
Versions: 1 2 3 4 5 6 7 8 9 10 11 12 13 14 15 16 17 18 19 20 21 22 23 24 25 26 27 28 29 30 31 32 33 34 35 36 37 38 39 40 41 42 43 44 45 46 47 48 49 50
000
ASUS43 KFSD 290610
RWRFSD

WEATHER ROUNDUP FOR SE SOUTH DAKOTA/SW MINNESOTA/NW IOWA
NATIONAL WEATHER SERVICE SIOUX FALLS SD
100 AM CDT SUN MAR 29 2015

NOTE: "FAIR" INDICATES FEW OR NO CLOUDS BELOW 12,000 FEET WITH NO
SIGNIFICANT WEATHER AND OR OBSTRUCTIONS TO VISIBILITY.


SDZ038>040-050-052>070-290700-
SOUTHEAST SOUTH DAKOTA

CITY           SKY/WX    TMP DP  RH WIND       PRES   REMARKS
CHAMBERLAIN    PTCLDY    59  39  47 NW26G40   29.67R
6HR MIN TEMP:  50; 6HR MAX TEMP:  61;

HURON          CLOUDY    47  33  58 S9G20     29.66R
6HR MIN TEMP:  46; 6HR MAX TEMP:  56;

MADISON        FAIR      41  32  70 S26G37    29.68F
MITCHELL       CLOUDY    50  34  54 S20G28    29.65F
6HR MIN TEMP:  47; 6HR MAX TEMP:  56;

SIOUX FALLS    PTCLDY    43  31  62 S23       29.74F
6HR MIN TEMP:  43; 6HR MAX TEMP:  51;

WINNER         FAIR      60  41  49 NW32G39   29.75R
YANKTON        MOCLDY    46  34  61 S20G29    29.76R
$$

MNZ071-072-080-081-089-090-097-098-290700-
SOUTHWEST MINNESOTA

CITY           SKY/WX    TMP DP  RH WIND       PRES   REMARKS
FAIRMONT       CLEAR     36  23  60 S23G29    29.85F
JACKSON        CLEAR     37  28  70 S23G33    29.82F
LUVERNE        PTCLDY    41  32  70 S20G26    29.77F
MARSHALL       CLEAR     43  27  52 S20G30    29.72F
6HR MIN TEMP:  41; 6HR MAX TEMP:  48;

MONTEVIDEO     FAIR      39  30  70 S17G26    29.72F
PIPESTONE      PTCLDY    39  30  70 S24G32    29.72F
REDWOOD FALLS  CLEAR     38  28  67 S20       29.77F
TRACY          CLEAR     40  30  67 S24G37    29.70F
WINDOM         CLEAR     39  28  65 S20G29    29.78F
WORTHINGTON    CLEAR     37  27  65 S29G36    29.78F
$$

IAZ001>003-012>014-020>022-031-032-NEZ013-014-SDZ071-290700-
NORTHWEST IOWA

CITY           SKY/WX    TMP DP  RH WIND       PRES   REMARKS
CHEROKEE       CLEAR     38  30  73 S15G22    29.86F
DENISON        CLEAR     39  30  70 S21G33    29.87F
ESTHERVILLE    CLEAR     36  27  69 S29G37    29.85F
LE MARS        CLEAR     43  32  65 S18G30    29.79F
ORANGE CITY    CLEAR     39  30  70 S17G25    29.79F
SHELDON        PTCLDY    37  32  81 S26G33    29.78F
SIOUX CITY     CLEAR     43  30  60 SE17G26   29.82F
6HR MIN TEMP:  42; 6HR MAX TEMP:  53;

SPENCER        CLEAR     38  29  70 S22G31    29.83F
6HR MIN TEMP:  38; 6HR MAX TEMP:  48;

STORM LAKE     CLEAR     36  30  80 S22G29    29.86F
$$

ABBREVIATIONS USED IN REMARKS
   TC - TEMPERATURE IN CELSIUS
  WCI - WIND CHILL INDEX
   HX - HEAT INDEX
  VSB - VISIBILITY



USA.gov is the U.S. government's official web portal to all federal, state and local government web resources and services.